Regional Weather Roundup
Issued by NWS

Home | Current Version | Previous Version | Graphics & Text | Print | Product List | Glossary On
Versions: 1 2 3 4 5 6 7 8 9 10 11 12 13 14 15 16 17 18 19 20 21 22 23 24 25 26 27 28 29 30 31 32 33 34 35 36 37 38 39 40 41 42 43 44 45 46 47 48 49 50
342
ASUS45 KSLC 261810
RWRUT

UTAH REGIONAL WEATHER ROUNDUP
NATIONAL WEATHER SERVICE SALT LAKE CITY UT
1200 PM MDT MON JUN 26 2017

UTZ001>011-023>025-261900-

NORTHERN UTAH

CITY           SKY/WX    TMP DP  RH WIND       PRES   REMARKS
BRIGHAM CITY   MOSUNNY   83  39  21 CALM      30.07F
DUGWAY         PTSUNNY   88  29  12 S1        30.05F
HILL AFB       MOSUNNY   85  44  24 E9        30.11S
LOGAN          MOSUNNY   82  48  30 NE3       30.09F
OGDEN          MOSUNNY   87  36  16 VRB6      30.08F
SALT LAKE CITY MOSUNNY   90  39  16 VRB5      30.05F
TOOELE VALLEY  MOSUNNY   88  43  20 NE9       30.06F
WENDOVER         N/A     86  36  16 E8        30.05F
HEBER CITY     SUNNY     81  34  18 CALM      30.18F
WEST JORDAN    SUNNY     89  53  29 SE12      30.09F

$$

UTZ011>015-024>027-261900-

CENTRAL/NORTHEAST UTAH

CITY           SKY/WX    TMP DP  RH WIND       PRES   REMARKS
PROVO AIRPORT  SUNNY     80  52  37 W7        30.11F
MOAB/CANYONLAN SUNNY     93  25   8 SE8       30.09F
DELTA          MOSUNNY   90  21   8 S6        30.10F
PRICE          SUNNY     86  27  11 VRB5      30.22F
RICHFIELD      SUNNY     88  30  12 S1        30.16  HAZE
VERNAL         SUNNY     84  32  15 SE5       30.20F

$$

UTZ013>016-019>022-027-261900-

SOUTHERN UTAH

CITY           SKY/WX    TMP DP  RH WIND       PRES   REMARKS
BRYCE CANYON   MOSUNNY   82  30  15 S10G18    30.36R
CEDAR CITY     SUNNY     93  25   8 SW16G23   30.17S
MILFORD        SUNNY     94  27   9 S10       30.11F
ST GEORGE      CLEAR     97  37  12 CALM      29.97F HX  92
HANKSVILLE     SUNNY     91  28  10 CALM      30.11F
KANAB          SUNNY     93  27   9 SW15G21   30.18
BLANDING       SUNNY     83  41  22 S8        30.32F

$$

REGIONAL REPORTS     COLORADO/ARIZONA

CITY           SKY/WX    TMP DP  RH WIND       PRES   REMARKS
CRAIG, CO      SUNNY     84  28  13 NE9       30.26F
GRAND JUNCTION SUNNY     90  29  11 SE6       30.14F
RIFLE, CO      SUNNY     85  28  12 N6        30.21F
MONTROSE, CO   SUNNY     87  36  16 VRB5      30.22F
CORTEZ, CO     SUNNY     86  42  21 S9        30.25F
COLORADO CITY    N/A     97  30   9 SW15G22   30.17F HX  91
PAGE, AZ       SUNNY     94  33  11 N6        30.09F
GRAND CANYON   SUNNY     86  30  13 SW10G18   30.33S
KINGMAN, AZ    SUNNY     98  28   8 W12G22    30.08F HX  92
FLAGSTAFF, AZ  SUNNY     83  35  18 W10G17    30.36S

$$

REGIONAL REPORTS    NEVADA/IDAHO/WYOMING

CITY           SKY/WX    TMP DP  RH WIND       PRES   REMARKS
LAS VEGAS, NV  SUNNY    101   7   3 S14G23    29.89F HX  93
ELY, NY        SUNNY     90  33  13 S10       30.16F
ELKO, NV       SUNNY     89  30  12 VRB5      30.06F
POCATELLO, ID  SUNNY     85  53  33 N7        30.08F
BURLEY, ID       N/A    N/A N/A N/A MISG      30.01F
FORT BRIDGER,    N/A     75  32  20 E5        30.33F
EVANSTON, WY   SUNNY     76  38  25 CALM      30.30F
ROCK SPRINGS,  SUNNY     79  28  15 S9        30.29F
KEMMERER, WY     N/A     75  28  17 E6        30.33F

$$




USA.gov is the U.S. government's official web portal to all federal, state and local government web resources and services.